Find STARLINK-37787

NORAD ID: 799501039 Int'l Des: 2026-146R Constellation: starlink operational

Aktuelle Ansicht

3D-Globus wird geladen...

About STARLINK-37787

STARLINK-37787 (NORAD 799501039) is a starlink constellation satellite launched Jun 12, 2026

Über STARLINK-37787

Beschreibung wird geladen...

Nächste Überflüge

Passes for default location (London). Set your location on the main map for personalized predictions.

Höhenverlauf

Loading altitude history...

Zweizeiliger Elementsatz

1 99999C 2026146R 26176.32895832 .00719130 00000-0 110410-3 0 1766
2 99999 97.2854 21.9844 0011251 277.4967 183.5785 16.03832831 15
Epoch: 25. Juni 2026 • Age: 10 hours